Location: Dessau
(51.7984°N, 12.2168°E)
Time: 00:10:13
(UTC+01:00)

ISS - Pass Details

Date: 12 November 2017
Orbit: 402 x 407 km, 51.6° (Epoch: 19 November)

Event Time Altitude Azimuth Distance (km) Brightness Sun altitude
Exits shadow 04:20:03 17° 92° (E) 1,106 -0.9 -28.5°
Drops below altitude 10° 04:20:55 10° 93° (E) 1,457 -0.1 -28.4°
Sets 04:22:59 0° 93° (E) 2,316 1.2 -28.0°
